Location: Hamilton
(37.7830°S, 175.2830°E)
Time: 02:33:42
(UTC+13:00)

MetOp-B - Pass Details

Date: 24 January 2019
Orbit: 819 x 821 km, 98.7° (Epoch: 14 October)

Event Time Altitude Azimuth Distance (km) Brightness Sun altitude
Rises 23:16:08 0° 169° (S) 3,390 8.0 -24.8°
Reaches altitude 10° 23:18:30 10° 170° (S) 2,450 7.2 -25.1°
Maximum altitude 23:23:56 78° 254° (WSW) 851 4.2 -25.7°
Enters shadow 23:25:09 54° 327° (NNW) 995 4.3 -25.8°
